Location: Heilbronn
(49.1548°N, 9.2780°E)
Time: 12:34:49
(UTC+01:00)

ISS - Pass Details

Date: 11 January 2018
Orbit: 402 x 407 km, 51.6° (Epoch: 19 January)

Event Time Altitude Azimuth Distance (km) Brightness Sun altitude
Exits shadow 05:41:19 36° 91° (E) 659 -2.3 -24.3°
Drops below altitude 10° 05:43:26 10° 101° (E) 1,466 0.1 -23.9°
Sets 05:45:32 0° 103° (ESE) 2,326 1.4 -23.6°
